Date,TemperatureHighF,TemperatureAvgF,TemperatureLowF,DewpointHighF,DewpointAvgF,DewpointLowF,HumidityHigh,HumidityAvg,HumidityLow,PressureMaxIn,PressureMinIn,WindSpeedMaxMPH,WindSpeedAvgMPH,GustSpeedMaxMPH,PrecipitationSumIn
2013-3-1,42.2,39.5,37.7,40.3,33.6,28.2,100,80,63,30.29,30.23,17,3,17,0.00
2013-3-2,41.2,38.5,37.1,30.0,28.6,26.9,72,67,58,30.28,30.19,11,2,11,0.00
2013-3-3,44.9,42.2,37.6,42.6,36.1,28.9,99,80,64,30.20,30.12,12,2,12,0.00
2013-3-4,52.9,42.6,32.8,31.5,28.8,25.4,85,61,37,30.12,29.80,15,4,15,0.00
2013-3-5,64.6,50.4,39.3,28.1,25.4,20.0,61,40,18,29.80,29.61,19,2,19,0.00
2013-3-6,60.4,52.5,45.1,33.8,29.6,23.2,57,43,26,29.61,29.48,12,2,12,0.00
2013-3-7,53.7,49.8,46.2,44.2,33.9,27.1,90,55,39,29.48,29.39,14,5,14,0.07
2013-3-8,56.9,50.5,46.6,49.6,46.5,42.7,99,87,72,29.42,29.39,18,6,18,0.09
2013-3-9,47.0,42.6,37.7,46.5,42.6,37.6,100,100,99,29.48,29.36,19,5,19,1.03
2013-3-10,38.2,34.2,31.5,38.0,30.6,21.9,100,87,67,29.68,29.48,20,5,20,0.08
2013-3-11,31.5,30.2,29.0,23.7,20.9,18.3,77,68,60,29.73,29.68,24,6,24,0.00
2013-3-12,33.4,29.7,27.0,20.5,15.6,8.1,74,57,35,29.71,29.64,25,6,25,0.00
2013-3-13,42.0,33.4,25.3,29.7,23.6,16.2,79,67,51,29.76,29.63,14,2,14,0.00
2013-3-14,39.6,34.7,30.2,29.5,23.5,16.1,89,65,40,29.92,29.74,16,2,16,0.01
2013-3-15,40.1,34.9,30.7,35.9,29.6,21.9,98,82,68,29.92,29.74,23,5,23,0.05
2013-3-16,46.1,42.6,39.8,32.6,26.6,16.5,74,55,33,29.74,29.47,30,7,30,0.01
2013-3-17,50.4,44.5,40.0,40.7,35.2,24.4,94,71,48,29.48,29.20,25,5,25,0.05
2013-3-18,48.7,43.5,38.5,41.1,37.2,34.0,99,80,60,29.27,29.19,21,4,21,0.08
2013-3-19,44.9,40.5,37.1,41.3,37.8,34.3,100,90,76,29.44,29.27,12,3,15,0.02
2013-3-20,38.9,35.7,33.9,38.8,34.5,31.5,100,95,90,0.00,0.00,19,4,19,0.00
2013-3-21,40.9,36.3,32.0,35.8,33.2,30.7,97,89,74,0.00,0.00,10,2,13,0.00
2013-3-22,40.7,34.8,29.2,34.9,31.9,28.9,100,89,77,29.93,0.00,34,11,34,0.00
2013-3-23,36.6,33.3,30.0,29.3,26.1,18.6,86,75,61,29.97,29.91,35,13,38,0.00
2013-3-24,37.4,31.7,27.0,19.1,14.2,9.6,63,49,35,29.99,29.92,36,14,36,0.00
2013-3-25,40.6,34.0,29.3,21.0,19.2,16.9,64,55,41,29.99,29.89,32,11,32,0.00
2013-3-26,42.2,34.5,27.8,22.3,20.8,19.0,72,58,41,29.95,29.86,28,9,28,0.00
2013-3-27,43.2,35.2,28.0,24.8,23.2,20.7,84,63,42,29.91,29.79,25,7,25,0.00
2013-3-28,39.9,34.0,29.2,31.0,25.9,22.0,95,72,62,29.84,29.78,20,5,20,0.00
2013-3-29,39.1,33.8,29.0,34.2,31.3,28.9,100,91,72,29.83,29.76,11,2,11,0.00
2013-3-30,41.1,34.9,30.5,36.0,32.4,30.2,100,91,68,29.89,29.76,17,3,17,0.00
2013-3-31,40.6,35.9,30.9,34.6,32.3,30.2,100,87,70,29.94,29.89,15,3,15,0.00